www.pogodaiklimat.ru
ПОГОДА в Оконто
Время
(UTC), дата
19:35 14.11
19:55 14.11
20:15 14.11
20:35 14.11
20:55 14.11
21:15 14.11
21:35 14.11
21:55 14.11
22:15 14.11
22:35 14.11
22:55 14.11
23:15 14.11
23:35 14.11
23:55 14.11
00:15 14.11
00:35 14.11
00:55 14.11
01:15 14.11
01:35 14.11
01:55 14.11
02:15 14.11
02:35 14.11
02:55 14.11
03:15 14.11
03:35 14.11
03:55 14.11
04:15 14.11
04:35 14.11
04:55 14.11
05:15 15.11
05:35 15.11
05:55 15.11
06:15 15.11
06:35 15.11
06:55 15.11
07:15 15.11
07:35 15.11
07:55 15.11
08:15 15.11
08:35 15.11
08:55 15.11
09:15 15.11
09:35 15.11
09:55 15.11
10:15 15.11
10:35 15.11
10:55 15.11
11:15 15.11
Ветер
(напр.,м/с)
Видим. Явления Облачность Т
(С)
Тd
(С)
f
(%)
Тe
(С)
Тes
(С)
Комфортность P
(гПа)
Po
(гПа)
Тmin
(С)
Tmax
(С)
R
(мм)
R24
(мм)
S
(см)
З 7
{9}
16 км ясно -1.5 -8.3 60 -9 -8 997.5
З 5
{8}
16 км ясно -1.5 -8.3 60 -8 -7 997.5
З 6
{8}
16 км ясно -1.5 -8.3 60 -8 -8 997.5
ЮЗ 5 16 км ясно -1.7 -8.1 62 -8 -8 997.5
ЮЗ 5 16 км ясно -2.0 -8.1 63 -9 -8 997.5
З 4
{8}
16 км ясно -2.4 -8.2 64 -8 -8 997.5
ЮЗ 4 16 км ясно -2.7 -8.1 66 -9 -9 997.5
З 5 16 км ясно -3.0 -8.0 68 -10 -10 997.5
З 5 16 км ясно -2.9 -8.0 68 -10 -10 997.5
ЮЗ 4 16 км ясно -3.0 -8.0 68 -9 -9 997.5
ЮЗ 5 16 км ясно -3.1 -8.0 69 -10 -10 997.5 -3.1 -1.5
ЮЗ 3 16 км ясно -3.4 -8.0 70 -9 -9 997.5
ЮЗ 4 16 км ясно -3.5 -8.0 71 -10 -10 997.5
ЮЗ 6
{8}
16 км ясно -3.7 -8.0 72 -11 -11 997.5
ЮЗ 5
{7}
16 км ясно -3.7 -8.0 72 -11 -11 997.1
ЮЗ 4 16 км 5/5 1500 м -3.6 -7.8 73 -10 -10 997.1
ЮЗ 6
{9}
16 км 10/10 1500 м -3.3 -7.6 72 -11 -11 997.1
ЮЗ 5
{8}
16 км 10/10 1500 м -3.0 -7.5 71 -10 -10 996.8
З 6
{9}
16 км 10/10 1500 м -2.7 -7.1 72 -10 -10 997.1
З 4 16 км 10/10 1500 м -2.5 -7.1 71 -9 -9 997.5
З 6
{9}
16 км 10/10 1500 м -2.5 -7.0 71 -10 -10 997.5
З 6 16 км 8/8 1500 м -2.9 -7.3 72 -11 -11 997.5
З 4 16 км 5/5 1500 м -3.2 -7.5 72 -9 -9 997.8
З 6
{8}
16 км 8/8 750 м -2.8 -7.2 72 -10 -10 997.8
З 4
{7}
16 км 5/5 750 м -3.1 -7.5 72 -10 -10 997.8
З 4 16 км 8/8 750 м -2.9 -7.2 72 -9 -9 998.1
З 4
{8}
16 км 10/10 810 м -2.8 -7.3 71 -9 -9 998.1
З 4 16 км 10/10 870 м -2.6 -7.2 71 -9 -9 998.5
З 4 16 км 5/5 870 м -2.7 -7.2 71 -9 -9 998.5 -3.8 -2.5
З 4 16 км 8/8 930 м -2.5 -7.0 71 -9 -9 998.8
З 3 16 км 10/10 870 м -2.3 -6.8 71 -8 -8 998.8
З 3 16 км 10/10 810 м -2.2 -6.7 71 -8 -8 999.1
З 4 16 км 10/10 810 м -2.2 -6.7 71 -8 -8 998.8
З 4 16 км 10/10 810 м -2.1 -6.6 71 -8 -8 999.1
З 3 16 км 10/10 810 м -2.2 -6.5 72 -8 -8 999.5
З 3 16 км 10/10 810 м -2.3 -6.5 73 -8 -8 999.5
ЮЗ 3 16 км 10/10 870 м -2.2 -6.2 74 -8 -8 999.5
З 3 16 км 10/10 870 м -2.7 -6.5 75 -8 -8 999.5
З 3 16 км 5/5 870 м -3.3 -6.7 77 -8 -8 999.8
З 3 16 км ясно -3.7 -6.9 78 -9 -9 999.8
ЮЗ 1 16 км ясно -3.6 -6.8 78 -7 -7 1000.1
З 2 16 км ясно -4.2 -7.1 80 -9 -9 1000.1
ЮЗ 2 16 км ясно -5.4 -7.6 84 -10 -10 1000.1
ЮЗ 3 16 км ясно -5.5 -7.7 84 -11 -11 1000.1
З 1 16 км ясно -4.8 -7.0 85 -8 -8 1000.4
З 1 16 км ясно -5.0 -7.1 85 -9 -9 1000.8
ЮЗ 2 16 км ясно -5.7 -7.6 86 -11 -11 1000.8 -5.7 -2.1
З 1 16 км ясно -5.1 -7.0 86 -9 -9 1001.1
Местоположение метеостанции J. Douglas Bake Memorial Airport: широта 44.8742 долгота -87.9096 высота над уровнем моря 184 м.
В архиве по умолчанию представлена погода в Оконто за последние 1-2 суток. Обновление информации о фактической погоде в базе происходит ежечасно! Архивные данные за месяц целиком и за предыдущие месяцы Вы можете получить, выбрав интересующий диапазон дат из раскрывающегося списка и нажав кнопку "Ввод!".
Внимание! Архив погоды МЕТАР в базе сайта по станциям, не включенным в климатический монитор, хранится не более 60 дней. Нет смысла пытаться выбрать более раннюю дату.
*Определитесь, кто Вы:
Внимание! Время в таблицах - всемирное. Для получения местного времени необходимо прибавить поправку, которая равна ч.
Смотрите также архив погоды в соседних городах и на ближайших метеорологических станциях:
Партнеры нашего сайта:      
Пояснения к столбцам:
  • Ветер - указаны скорость ветра в м/с - средняя за 10 мин, порывы в срок и между сроками (в фигурных скобках) и направление, откуда дует ветер: С - северный,
  • СВ - северо-восточный, В - восточный, ЮВ - юго-восточный, Ю - южный, ЮЗ - юго-западный, З - западный, СЗ - северо-западный.
  • Видимость - горизонтальная дальность видимости в метрах или километрах. При видимости от 1 до 10 км при отсутствии осадков обычно наблюдается дымка, при ухудшении видимости до 1 км и менее - туман. В сухую погоду видимость может ухудшаться дымом, пылью или мглою.
  • Явления - указаны атмосферные явления, наблюдавшиеся в срок или в последний час перед сроком; фигурными скобками обозначены явления, наблюдавшиеся между сроками (за 1-3 часа до срока); квадратными скобками обозначены град или гололедные отложения с указанием их диаметра в мм.
  • Облачность - указаны через наклонную черту общая и нижняя облачность в баллах и высота нижней границы облаков в метрах; квадратными скобками обозначены формы облаков: Ci - перистые, Cs - перисто-слоистые, Cc - перисто-кучевые, Ac - высококучевые, As - высокослоистые, Sc - слоисто-кучевые, Ns - слоисто-дождевые, Cu - кучевые, Cb - кучево-дождевые. Подробнее классификацию облаков см. в Атласе облаков (PDF).
  • T - Температура воздуха - температура, измеренная на высоте 2 м над землей.
  • Td - Температура точки росы - температура, при понижении до которой содержащийся в воздухе водяной пар достигнет насыщения.
  • f - Относительная влажность воздуха - влажноcть воздуха, измеренная на высоте 2 м над землей.
  • Te - Эффективная температура - температура, которую ощущает одетый по сезону человек в тени. Характеристика душности погоды. При расчете учитывается влияние влажности воздуха и скорости ветра на теплоощущения человека.
  • Tes - Эффективная температура на солнце - температура, которую ощущает человек, с поправкой на солнечный нагрев. Характеристика знойности погоды. Зависит от высоты солнца над горизонтом, облачности и скорости ветра. Ночью, в пасмурную погоду, а также при ветре 12 м/с и более поправка равна нулю.
  • P - Атмосферное давление - приведенное к уровню моря атмосферное давление.
  • Po - Атмосферное давление - измеренное на уровне метеостанции атмосферное давление.
  • Tmin - Минимальная температура - минимум температуры воздуха на высоте 2 м над землей.
  • Tmax - Максимальная температура - максимум температуры воздуха на высоте 2 м над землей.
  • R - Количество осадков - Количество выпавших осадков за период времени, мм. При наведении курсора мыши на число - период времени, за который выпало указанное количество осадков.
  • R24 - Количество осадков - Количество выпавших осадков за 24 часа, мм.
  • S - Снежный покров - Высота снежного покрова, см. При наведении курсора мыши на число - состояние снежного покрова и степень покрытия местности в баллах.